GW4073 Weather Reports


Display with metric or nautical units.
time (UTC)temp
F
wind
direction
speed
MPH
gust
MPH
rain 1hr
in
rain 24hr
in
rain mn
in
humidity
%
barometer
mb
20260831074951 62 51 4.0 5.0 0.00 0.00 0.00 58 1015.4
20260831074450 62 41 5.0 6.0 0.00 0.00 0.00 58 1015.6
20260831073944 62 37 7.0 8.0 0.00 0.00 0.00 58 1015.2
20260831073439 62 47 4.0 9.0 0.00 0.00 0.00 58 1015.5
20260831072938 62 42 4.0 7.0 0.00 0.00 0.00 57 1015.5
20260831072434 63 52 7.0 9.0 0.00 0.00 0.00 57 1015.5
20260831071931 63 40 6.0 12.0 0.00 0.00 0.00 56 1015.2
20260831071430 63 53 11.0 14.0 0.00 0.00 0.00 56 1015.5
20260831070929 64 65 6.0 13.0 0.00 0.00 0.00 55 1015.6
20260831070424 63 50 8.0 9.0 0.00 0.00 0.00 56 1015.4
20260831065923 63 20 4.0 5.0 0.00 0.00 0.00 56 1015.6
20260831065420 64 30 3.0 6.0 0.00 0.00 0.00 55 1015.7
20260831064915 63 13 4.0 8.0 0.00 0.00 0.00 56 1015.5
20260831064410 64 42 4.0 7.0 0.00 0.00 0.00 55 1015.2
20260831063906 64 41 7.0 10.0 0.00 0.00 0.00 55 1015.4
20260831063401 63 33 6.0 8.0 0.00 0.00 0.00 56 1015.1
20260831062856 63 39 3.0 7.0 0.00 0.00 0.00 57 1015.1
20260831062351 63 307 3.0 8.0 0.00 0.00 0.00 57 1015.2
20260831061849 64 31 3.0 7.0 0.00 0.00 0.00 56 1015.4
20260831061343 64 6 4.0 8.0 0.00 0.00 0.00 56 1015.4
20260831060840 64 41 4.0 10.0 0.00 0.00 0.00 56 1015.6
20260831060339 64 50 7.0 10.0 0.00 0.00 0.00 55 1015.4
20260831055839 64 83 5.0 10.0 0.00 0.01 0.01 55 1015.2
20260831055334 64 1 5.0 10.0 0.00 0.01 0.01 56 1015.7
20260831054829 64 43 5.0 7.0 0.00 0.01 0.01 56 1015.4
20260831054325 64 92 4.0 11.0 0.00 0.01 0.01 55 1015.6
20260831053823 65 62 3.0 9.0 0.00 0.01 0.01 54 1015.8
20260831053322 65 43 6.0 11.0 0.00 0.01 0.01 54 1015.6
20260831052817 65 48 5.0 9.0 0.00 0.01 0.01 54 1015.8
20260831052316 65 11 4.0 8.0 0.00 0.01 0.01 54 1015.6
20260831051814 65 41 6.0 14.0 0.00 0.01 0.01 55 1015.7
20260831051313 65 41 6.0 7.0 0.00 0.01 0.01 54 1015.7
20260831050808 66 39 4.0 8.0 0.00 0.01 0.01 54 1015.4
20260831050307 66 27 3.0 6.0 0.00 0.01 0.01 53 1015.4
20260831045802 66 44 4.0 6.0 0.00 0.01 0.01 53 1015.6
20260831045256 66 16 3.0 6.0 0.00 0.01 0.01 53 1015.5
20260831044751 66 29 2.0 7.0 0.00 0.01 0.01 53 1015.5
20260831044246 66 24 1.0 6.0 0.00 0.01 0.01 53 1015.6
20260831043742 66 39 6.0 7.0 0.00 0.01 0.01 52 1015.6
20260831043237 67 0 3.0 5.0 0.00 0.01 0.01 52 1015.2
20260831042736 67 36 2.0 4.0 0.00 0.01 0.01 53 1015.5
20260831042231 67 36 4.0 7.0 0.00 0.01 0.01 52 1015.4
20260831041726 67 87 4.0 6.0 0.00 0.01 0.01 53 1015.5
20260831041220 68 29 4.0 11.0 0.00 0.01 0.01 52 1015.6
20260831040715 67 30 0.0 4.0 0.00 0.01 0.01 52 1015.5
20260831040214 67 94 2.0 5.0 0.00 0.01 0.01 52 1015.2
20260831035713 68 20 2.0 4.0 0.00 0.01 0.01 51 1015.4
20260831035213 68 4 4.0 8.0 0.00 0.01 0.01 52 1015.2
20260831034712 68 59 2.0 6.0 0.00 0.01 0.01 51 1015.1
20260831034208 68 44 6.0 9.0 0.00 0.01 0.01 50 1015.0
20260831033703 68 31 3.0 4.0 0.00 0.01 0.01 51 1014.8
20260831033202 68 27 4.0 5.0 0.00 0.01 0.01 51 1014.9
20260831032657 68 27 4.0 6.0 0.00 0.01 0.01 51 1014.9
20260831032153 68 44 4.0 7.0 0.00 0.01 0.01 50 1014.9
20260831031653 68 46 3.0 5.0 0.00 0.01 0.01 51 1014.5
20260831031153 67 28 2.0 3.0 0.00 0.01 0.01 52 1014.8
20260831030652 68 357 1.0 3.0 0.00 0.01 0.01 52 1014.9
20260831030151 67 40 2.0 3.0 0.00 0.01 0.01 54 1014.5
20260831025649 68 334 2.0 3.0 0.00 0.01 0.01 54 1014.5
20260831025144 68 42 2.0 2.0 0.00 0.01 0.01 54 1014.7
20260831024641 68 29 1.0 2.0 0.00 0.01 0.01 53 1014.7
20260831024139 69 22 2.0 2.0 0.00 0.01 0.01 52 1014.7
20260831023638 69 38 2.0 2.0 0.00 0.01 0.01 51 1014.4
20260831023137 70 26 2.0 2.0 0.00 0.01 0.01 50 1014.3
20260831022632 70 353 2.0 2.0 0.00 0.01 0.01 48 1014.3
20260831022127 71 3 2.0 2.0 0.00 0.01 0.01 49 1014.3
20260831021626 72 12 2.0 2.0 0.00 0.01 0.01 45 1014.1
20260831021122 73 59 0.0 1.0 0.00 0.01 0.01 45 1014.1
20260831020618 73 344 2.0 2.0 0.00 0.01 0.01 43 1014.2
20260831020113 74 5 1.0 1.0 0.00 0.01 0.01 43 1013.9
20260831015609 75 300 1.0 2.0 0.00 0.01 0.01 41 1013.9
20260831015108 75 326 2.0 3.0 0.00 0.01 0.01 41 1013.8
20260831014603 75 311 1.0 3.0 0.00 0.01 0.01 41 1013.7
20260831014058 76 5 1.0 4.0 0.00 0.01 0.01 41 1013.7
20260831013555 77 285 0.0 4.0 0.00 0.01 0.01 40 1013.7
20260831013054 77 301 0.0 5.0 0.00 0.01 0.01 40 1013.8
20260831012549 77 321 2.0 3.0 0.00 0.01 0.01 39 1013.6
20260831012044 78 281 1.0 2.0 0.00 0.01 0.01 39 1013.7
20260831011543 79 262 2.0 5.0 0.00 0.01 0.01 37 1013.8
20260831011038 78 280 2.0 4.0 0.00 0.01 0.01 38 1013.7
20260831010534 79 257 2.0 3.0 0.00 0.01 0.01 39 1013.9
20260831010030 79 294 4.0 4.0 0.00 0.01 0.01 38 1013.8
20260831005525 79 244 1.0 3.0 0.00 0.01 0.01 38 1014.1
20260831005024 80 260 2.0 8.0 0.00 0.01 0.01 39 1013.7
20260831004520 80 320 2.0 5.0 0.00 0.01 0.01 38 1013.7
20260831004016 80 285 1.0 5.0 0.00 0.01 0.01 39 1013.8
20260831003512 80 272 2.0 6.0 0.00 0.01 0.01 37 1013.7
20260831003007 81 300 2.0 5.0 0.00 0.01 0.01 37 1013.9
20260831002506 81 280 0.0 5.0 0.00 0.01 0.01 37 1014.1
20260831002001 82 287 2.0 4.0 0.00 0.01 0.01 36 1013.7
20260831001456 81 289 2.0 4.0 0.00 0.01 0.01 36 1013.7
20260831000953 82 258 4.0 5.0 0.00 0.01 0.01 35 1013.9
20260831000449 82 331 2.0 6.0 0.00 0.01 0.01 35 1013.8
20260830235946 82 294 4.0 6.0 0.00 0.01 0.01 36 1014.1
20260830235442 83 231 3.0 3.0 0.00 0.01 0.01 37 1013.8
20260830234937 83 288 2.0 4.0 0.00 0.01 0.01 35 1014.1
20260830234432 83 291 4.0 5.0 0.00 0.01 0.01 35 1014.1
20260830233928 84 294 4.0 6.0 0.00 0.01 0.01 34 1013.7
20260830233423 84 227 2.0 3.0 0.00 0.01 0.01 34 1013.9
20260830232919 84 296 3.0 8.0 0.00 0.01 0.01 34 1013.9
20260830232415 84 311 2.0 4.0 0.00 0.01 0.01 34 1013.9
20260830231912 83 290 4.0 6.0 0.00 0.01 0.01 35 1013.8
20260830231406 83 267 3.0 8.0 0.00 0.01 0.01 34 1014.1
20260830230905 83 224 7.0 10.0 0.00 0.01 0.01 34 1013.7
20260830230401 84 302 6.0 7.0 0.00 0.01 0.01 35 1013.7
20260830225900 84 258 4.0 6.0 0.00 0.01 0.01 33 1013.8
20260830225355 84 287 3.0 12.0 0.00 0.01 0.01 35 1013.7
20260830224850 84 296 5.0 14.0 0.00 0.01 0.01 34 1013.6
20260830224344 83 326 2.0 6.0 0.00 0.01 0.01 35 1013.6
20260830223841 83 293 5.0 5.0 0.00 0.01 0.01 36 1013.9
20260830223337 82 238 9.0 9.0 0.00 0.01 0.01 35 1013.8
20260830222836 83 297 7.0 9.0 0.00 0.01 0.01 36 1013.6
20260830222332 82 299 2.0 3.0 0.00 0.01 0.01 40 1013.9
20260830221827 81 286 2.0 3.0 0.00 0.01 0.01 41 1014.2
20260830221324 82 188 5.0 14.0 0.00 0.01 0.01 35 1014.1
20260830220824 82 224 3.0 6.0 0.00 0.01 0.01 37 1014.2
20260830220323 81 206 2.0 11.0 0.00 0.01 0.01 36 1014.2
20260830215821 81 288 9.0 11.0 0.00 0.01 0.01 36 1014.1
20260830215316 81 197 4.0 6.0 0.00 0.01 0.01 37 1014.3
20260830214812 80 175 3.0 8.0 0.00 0.01 0.01 39 1014.1
20260830214307 80 247 4.0 6.0 0.00 0.01 0.01 41 1014.4
20260830213806 80 234 4.0 8.0 0.02 0.01 0.01 43 1014.3
20260830213301 79 275 2.0 9.0 0.02 0.01 0.01 50 1014.7
20260830212757 82 285 4.0 6.0 0.00 0.01 0.01 39 1014.4
20260830212253 82 292 4.0 5.0 0.00 0.01 0.01 35 1014.4
20260830211752 85 257 5.0 9.0 0.00 0.01 0.01 35 1014.5
20260830211251 85 255 2.0 11.0 0.00 0.01 0.01 34 1014.7
20260830210747 83 260 3.0 10.0 0.00 0.01 0.01 34 1014.7
20260830210246 83 239 2.0 10.0 0.00 0.01 0.01 36 1014.7
20260830205743 84 289 4.0 9.0 0.00 0.01 0.01 34 1014.8
20260830205238 87 306 3.0 6.0 0.00 0.01 0.01 35 1014.8
20260830204733 86 294 2.0 10.0 0.00 0.01 0.01 34 1014.7
20260830204232 84 311 3.0 7.0 0.00 0.01 0.01 35 1014.9
20260830203729 81 232 7.0 8.0 0.00 0.01 0.01 35 1014.9
20260830203224 84 223 5.0 11.0 0.00 0.01 0.01 35 1014.9
20260830202723 84 308 4.0 8.0 0.00 0.01 0.01 36 1014.7
20260830202219 81 186 4.0 5.0 0.00 0.01 0.01 38 1014.8
20260830201718 80 268 4.0 8.0 0.00 0.01 0.01 39 1014.9
20260830201214 84 291 3.0 6.0 0.00 0.01 0.01 40 1014.9
20260830200709 82 289 4.0 6.0 0.00 0.01 0.01 46 1015.2
20260830200209 79 341 2.0 6.0 0.00 0.01 0.01 45 1015.4
20260830195704 76 289 4.0 5.0 0.00 0.01 0.01 52 1015.1
20260830195202 76 290 2.0 5.0 0.00 0.01 0.01 59 1015.2
20260830194701 75 277 2.0 4.0 0.05 0.01 0.01 58 1015.4
20260830194201 73 287 3.0 7.0 0.05 0.01 0.01 62 1015.6
20260830193656 78 281 4.0 10.0 0.00 0.00 0.00 51 1015.2
20260830193156 84 289 3.0 9.0 0.00 0.00 0.00 41 1015.5
20260830192651 85 251 6.0 11.0 0.00 0.00 0.00 36 1015.1
20260830192146 87 309 4.0 8.0 0.00 0.00 0.00 36 1015.0
20260830191637 87 247 4.0 13.0 0.00 0.00 0.00 34 1014.8
20260830191131 87 227 6.0 8.0 0.00 0.00 0.00 34 1015.4
20260830190627 85 279 3.0 11.0 0.00 0.00 0.00 37 1015.5
20260830190122 85 182 4.0 7.0 0.00 0.00 0.00 38 1015.5
20260830185620 84 326 3.0 13.0 0.00 0.00 0.00 37 1015.7
20260830185111 85 282 2.0 12.0 0.00 0.00 0.00 37 1015.5
20260830184609 84 243 6.0 8.0 0.00 0.00 0.00 38 1015.7
20260830184104 82 233 6.0 14.0 0.00 0.00 0.00 39 1015.8
20260830183559 84 313 2.0 6.0 0.00 0.00 0.00 38 1015.9
20260830183055 84 260 4.0 11.0 0.00 0.00 0.00 40 1016.1
20260830182550 84 292 3.0 11.0 0.00 0.00 0.00 39 1015.9
20260830182046 84 205 10.0 11.0 0.00 0.00 0.00 41 1015.8
20260830181542 84 271 5.0 5.0 0.00 0.00 0.00 43 1016.3
20260830181041 84 211 4.0 5.0 0.00 0.00 0.00 42 1016.3
20260830180541 80 216 8.0 9.0 0.00 0.00 0.00 45 1016.4
20260830180041 78 251 3.0 5.0 0.00 0.00 0.00 47 1016.3
20260830175539 80 264 3.0 8.0 0.00 0.00 0.00 44 1016.6
20260830175035 83 222 2.0 7.0 0.00 0.00 0.00 41 1016.5
20260830174530 83 168 4.0 9.0 0.00 0.00 0.00 40 1016.6
20260830174025 83 209 6.0 8.0 0.00 0.00 0.00 40 1016.5
20260830173521 81 247 3.0 9.0 0.00 0.00 0.00 44 1016.3
20260830173015 83 175 5.0 6.0 0.00 0.00 0.00 39 1016.6
20260830172513 83 200 2.0 6.0 0.00 0.00 0.00 43 1016.5
20260830172008 83 305 4.0 5.0 0.00 0.00 0.00 45 1016.4
20260830171504 83 207 3.0 5.0 0.00 0.00 0.00 42 1016.6
20260830171003 82 140 2.0 5.0 0.00 0.00 0.00 45 1016.6
20260830170458 82 307 2.0 5.0 0.00 0.00 0.00 45 1016.5
20260830165956 81 231 1.0 6.0 0.00 0.00 0.00 44 1016.4
20260830165453 81 57 0.0 5.0 0.00 0.00 0.00 45 1016.4
20260830164948 81 326 3.0 4.0 0.00 0.00 0.00 47 1016.6
20260830164444 80 202 0.0 6.0 0.00 0.00 0.00 47 1016.6
20260830163940 80 299 2.0 4.0 0.00 0.00 0.00 51 1016.4
20260830163436 78 289 3.0 4.0 0.00 0.00 0.00 51 1016.5
20260830162935 79 287 2.0 3.0 0.00 0.00 0.00 50 1016.5
20260830162432 80 103 0.0 2.0 0.00 0.00 0.00 48 1016.5
20260830161931 79 275 1.0 2.0 0.00 0.00 0.00 53 1016.6
20260830161426 78 258 2.0 3.0 0.00 0.00 0.00 53 1016.4
20260830160926 78 289 2.0 2.0 0.00 0.00 0.00 51 1016.5
20260830160422 77 277 2.0 2.0 0.00 0.00 0.00 54 1016.3
20260830155917 76 284 1.0 4.0 0.00 0.00 0.00 55 1016.5
20260830155414 77 275 1.0 2.0 0.00 0.00 0.00 53 1016.3
20260830154908 76 294 2.0 2.0 0.00 0.00 0.00 56 1016.4
20260830154404 75 243 1.0 3.0 0.00 0.00 0.00 57 1016.4
20260830153901 73 238 2.0 2.0 0.00 0.00 0.00 60 1016.4
20260830153356 72 30 3.0 5.0 0.00 0.00 0.00 61 1016.2
20260830152854 71 48 3.0 4.0 0.00 0.00 0.00 64 1016.4
20260830152349 70 92 3.0 5.0 0.00 0.00 0.00 66 1016.4
20260830151844 70 45 4.0 4.0 0.00 0.00 0.00 66 1016.3
20260830151343 69 128 4.0 5.0 0.00 0.00 0.00 67 1016.3
20260830150839 69 52 2.0 5.0 0.00 0.00 0.00 69 1016.3
20260830150338 68 104 5.0 7.0 0.00 0.00 0.00 71 1016.4
20260830145833 68 40 3.0 6.0 0.00 0.00 0.00 71 1016.4
20260830145328 67 42 5.0 6.0 0.00 0.00 0.00 71 1016.3
20260830144823 67 31 7.0 9.0 0.00 0.00 0.00 72 1016.4
20260830144319 67 98 2.0 7.0 0.00 0.00 0.00 72 1016.4
20260830143814 66 33 4.0 6.0 0.00 0.00 0.00 73 1016.5
20260830143309 65 81 4.0 8.0 0.00 0.00 0.00 74 1016.2
20260830142803 65 98 5.0 7.0 0.00 0.00 0.00 74 1016.4
20260830142258 65 38 2.0 8.0 0.00 0.00 0.00 75 1016.3
20260830141753 65 34 4.0 8.0 0.00 0.00 0.00 75 1016.4
20260830141248 64 52 2.0 8.0 0.00 0.00 0.00 77 1016.4
20260830140743 63 49 2.0 9.0 0.00 0.00 0.00 78 1016.2
20260830140238 62 56 4.0 7.0 0.00 0.00 0.00 81 1016.4
20260830135732 62 48 6.0 6.0 0.00 0.00 0.00 81 1016.4
20260830135228 62 77 3.0 5.0 0.00 0.00 0.00 81 1016.4
20260830134723 62 45 4.0 6.0 0.00 0.00 0.00 81 1016.1
20260830134218 62 9 4.0 8.0 0.00 0.00 0.00 81 1016.3
20260830133714 62 79 2.0 5.0 0.00 0.00 0.00 81 1016.1
20260830133209 61 38 4.0 4.0 0.00 0.00 0.00 82 1016.2
20260830132705 61 89 0.0 3.0 0.00 0.00 0.00 81 1016.3
20260830132201 61 282 2.0 2.0 0.00 0.00 0.00 82 1016.2
20260830131659 62 343 1.0 3.0 0.00 0.00 0.00 80 1016.1
20260830131154 62 24 3.0 5.0 0.00 0.00 0.00 81 1016.3
20260830130649 62 31 3.0 6.0 0.00 0.00 0.00 81 1015.9
20260830130143 61 35 5.0 8.0 0.00 0.00 0.00 81 1015.7
20260830125643 61 43 4.0 6.0 0.00 0.00 0.00 81 1015.7
20260830125138 61 56 2.0 5.0 0.00 0.00 0.00 81 1015.6
20260830124636 62 40 4.0 6.0 0.00 0.00 0.00 81 1015.6
20260830124132 62 43 2.0 9.0 0.00 0.00 0.00 81 1015.4
20260830123629 62 46 3.0 4.0 0.00 0.00 0.00 80 1015.5
20260830123124 62 57 3.0 6.0 0.00 0.00 0.00 80 1015.5
20260830122621 62 44 3.0 6.0 0.00 0.00 0.00 79 1015.4
20260830122116 62 31 4.0 7.0 0.00 0.00 0.00 79 1015.4
20260830121612 62 37 5.0 6.0 0.00 0.00 0.00 79 1015.4
20260830121111 62 53 4.0 8.0 0.00 0.00 0.00 78 1015.2
20260830120606 62 38 6.0 6.0 0.00 0.00 0.00 79 1015.1
20260830115559 62 1 3.0 6.0 0.00 0.00 0.00 79 1015.0
20260830115054 62 24 6.0 8.0 0.00 0.00 0.00 79 1014.9
20260830114550 62 44 6.0 9.0 0.00 0.00 0.00 80 1015.0
20260830114049 61 49 6.0 8.0 0.00 0.00 0.00 80 1014.9
20260830113545 61 79 4.0 7.0 0.00 0.00 0.00 80 1014.9
20260830113040 62 61 4.0 8.0 0.00 0.00 0.00 80 1015.0
20260830112536 62 33 5.0 11.0 0.00 0.00 0.00 80 1014.9
20260830112033 62 31 4.0 7.0 0.00 0.00 0.00 80 1014.9
20260830111528 62 55 4.0 9.0 0.00 0.00 0.00 80 1015.2
20260830111024 62 47 6.0 6.0 0.00 0.00 0.00 80 1015.0
20260830110523 62 116 4.0 9.0 0.00 0.00 0.00 80 1015.1
20260830110019 62 53 5.0 6.0 0.00 0.00 0.00 80 1015.4
20260830105514 62 32 4.0 6.0 0.00 0.00 0.00 79 1015.4
20260830105010 63 31 4.0 6.0 0.00 0.00 0.00 78 1015.1
20260830104507 63 55 4.0 8.0 0.00 0.00 0.00 78 1015.0
20260830104002 62 34 5.0 7.0 0.00 0.00 0.00 80 1015.0
20260830103457 62 47 5.0 6.0 0.00 0.00 0.00 80 1015.1
20260830102955 62 45 8.0 9.0 0.00 0.00 0.00 80 1014.9
20260830102450 62 54 3.0 5.0 0.00 0.00 0.00 81 1015.0
20260830101946 62 30 3.0 11.0 0.00 0.00 0.00 80 1015.0
20260830101442 62 29 5.0 9.0 0.00 0.00 0.00 80 1015.0
20260830100941 62 44 3.0 8.0 0.00 0.00 0.00 80 1014.8
20260830100440 62 40 5.0 9.0 0.00 0.00 0.00 80 1015.1
20260830095939 62 36 6.0 11.0 0.00 0.00 0.00 80 1015.0
20260830095435 62 320 2.0 10.0 0.00 0.00 0.00 80 1015.0
20260830094931 63 38 8.0 13.0 0.00 0.00 0.00 79 1014.8
20260830094427 63 39 11.0 14.0 0.00 0.00 0.00 79 1015.1
20260830093923 63 10 2.0 7.0 0.00 0.00 0.00 79 1014.9
20260830093418 63 12 5.0 8.0 0.00 0.00 0.00 78 1014.8
20260830092914 63 33 4.0 11.0 0.00 0.00 0.00 78 1014.9
20260830092409 63 33 5.0 12.0 0.00 0.00 0.00 78 1014.8
20260830091906 64 32 5.0 9.0 0.00 0.00 0.00 78 1014.7
20260830091405 64 57 4.0 13.0 0.00 0.00 0.00 77 1014.5
20260830090903 64 39 6.0 10.0 0.00 0.00 0.00 76 1014.9
20260830090359 64 29 5.0 12.0 0.00 0.00 0.00 76 1014.9
20260830085854 64 18 7.0 11.0 0.00 0.00 0.00 76 1014.4
20260830085349 64 51 7.0 11.0 0.00 0.00 0.00 77 1014.7
20260830084845 64 31 5.0 8.0 0.00 0.00 0.00 77 1014.7
20260830084339 64 33 5.0 6.0 0.00 0.00 0.00 76 1014.8
20260830083834 64 40 4.0 8.0 0.00 0.00 0.00 76 1014.5
20260830083331 64 43 3.0 10.0 0.00 0.00 0.00 77 1014.8
20260830082830 64 52 8.0 10.0 0.00 0.00 0.00 77 1014.9
20260830082325 64 36 8.0 8.0 0.00 0.00 0.00 78 1014.8
20260830081820 64 38 6.0 9.0 0.00 0.00 0.00 77 1014.9
20260830081314 65 18 4.0 8.0 0.00 0.00 0.00 75 1014.9
20260830080809 65 36 7.0 11.0 0.00 0.00 0.00 75 1015.0
20260830080306 65 40 4.0 9.0 0.00 0.00 0.00 75 1014.9
20260830075805 65 34 6.0 9.0 0.00 0.00 0.00 75 1015.1
20260830075301 65 43 7.0 8.0 0.00 0.00 0.00 76 1015.2